Showing default

ORBCOMM FM 21, 25475

Orbit data source: Space-Track

ORBCOMM FM 21, 25475 is a payload satellite owned by Orbcomm (US) in LEO that was launched on Wed, 23 Sep 1998 UTC via a PEGASUS XL/HAPS launch vehicle from the Pegasus Launch, Eastern Range Air Space (ERAS). Payload-class satellites include a variety of spacecraft equipped with specific instruments for various scientific and technological missions. These include communications satellites like Starlink; space stations such as the ISS; scientific satellites like the Hubble; Earth observation satellites from companies like Planet Labs, Umbra, and HawkEye 360; GPS; miniature CubeSats for education and research; and military/defense satellites.

Loading next visibility...
Identifier
25475, 1998-053A
Orbit
LEO
Country
Flag of USUS / ORB
Related business
Manufacturer
OSC-Germantown
Mission
Non-operational Commercial Communications
Bus & Motor
MICROSTAR, Unknown motor
Mass
42 kg wet, 42 kg dry
Launch date (UTC)
1998-09-23 (27 years ago)
Launch vehicle
PEGASUS XL/HAPS
Launch site
Pegasus Launch, Eastern Range Air Space (ERAS)
Object type
Payload
Rocket body
Debris
Shape & HBR
Cyl + 2 Pan, 4.2 m
Radar Cross Section
1.484 m², Medium (>0.1 m² and < 1m²)

Expand to show TLE details & history
Last TLE update: 18 hours ago

TLE from 18 hours ago
0 ORBCOMM FM 21
1 25475U 98053A   25348.84867886  .00001033  00000-0  38651-3 0  9998
2 25475  45.0069 133.6800 0001259 101.7725 258.3264 14.37798137423245
Epoch: 2025-12-14T20:22Z
TLE epoch observation values (Epoch: 2025-12-14T20:22:05.853Z)
Latitude
-0.00005°
Longitude
104.39986°
Altitude
765.964 km
Speed
7.473 km/s
True Right ascension
08h 54m 43s
True Declination
0° 00' 00"
Sunlit
Object was in full shadow at epoch
Visualization orbit readout
Latitude
Unknown
Longitude
Unknown
Altitude
Unknown
Speed
Unknown
Apparent Right ascension
Unknown
Apparent Declination
Unknown
Sunlit
N/A
Visualization observer readout
Local Sidereal Time
13:22:47
Azimuth
Unknown
Elevation
Unknown
Doppler factor
Unknown
Orbital elements
Apogee altitude
768.227 km
Perigee altitude
766.428 km
Semi-major axis
7,145.464 km
Eccentricity
0.00013
Inclination
45.0069°
RAAN
133.68°
Arg. of periapsis
101.7725°
True anomaly
258.31227°
Mean anomaly
258.3264°
Eccentric anomaly
258.31934°
Mean motion
3.59333 °/min
Orbital period
100.19 mins
BSTAR
0.00038651
Loading maneuver chart data...
Computing Atmospheric mass density...
Loading historical data...
Loading historical data...
Loading historical data...
Loading historical data...
Loading historical data...
Loading historical data...
Loading historical data...

Documentation

Showing up to 5 results
|